Regional Weather Roundup
Issued by NWS

Home | Current Version | Previous Version | Graphics & Text | Print | Product List | Glossary On
Versions: 1 2 3 4 5 6 7 8 9 10 11 12 13 14 15 16 17 18 19 20 21 22 23 24 25 26 27 28 29 30 31 32 33 34 35 36 37 38 39 40 41 42 43 44 45 46 47 48 49 50
000
ASUS43 KBIS 231410
RWRND

NORTH DAKOTA REGIONAL WEATHER ROUNDUP
NATIONAL WEATHER SERVICE BISMARCK ND
900 AM CDT FRI JUN 23 2017

NOTE: "FAIR" INDICATES FEW OR NO CLOUDS BELOW 12,000 FEET WITH NO
SIGNIFICANT WEATHER AND/OR OBSTRUCTIONS TO VISIBILITY.


NDZ001>003-009>011-017-231500-
NORTHWEST NORTH DAKOTA

CITY           SKY/WX    TMP DP  RH WIND       PRES   REMARKS
WILLISTON      SUNNY     54  39  57 NW17      30.14R
MINOT          CLOUDY    54  40  59 W22G32    30.02R
MINOT AFB      CLOUDY    53  41  62 NW22      30.01R
$$

NDZ018>021-031>035-040>046-231500-
SOUTHWEST NORTH DAKOTA

CITY           SKY/WX    TMP DP  RH WIND       PRES   REMARKS
BISMARCK       CLOUDY    58  42  55 NW20G31   30.05R
DICKINSON      SUNNY     51  38  60 NW21G30   30.12R
GARRISON         N/A     51  39  63 NW26G37   30.04R
HETTINGER ARPT MOSUNNY   54  34  46 NW26G36   30.16R
$$

NDZ004>008-012>016-024-026-027-054-231500-
NORTHEAST NORTH DAKOTA

CITY           SKY/WX    TMP DP  RH WIND       PRES   REMARKS
GRAND FORKS    CLOUDY    59  53  80 NW20G25   29.83R
GRND FRKS AFB  CLOUDY    58  50  74 N16       29.84R
DEVILS LAKE    CLOUDY    55  46  71 NW23      29.91R
$$

NDZ022-023-025-028>030-036>039-047>053-231500-
SOUTHEAST NORTH DAKOTA

CITY           SKY/WX    TMP DP  RH WIND       PRES   REMARKS
FARGO          CLOUDY    62  52  69 NW23      29.84R
JAMESTOWN      CLOUDY    56  46  69 NW23G33   29.93R
$$





USA.gov is the U.S. government's official web portal to all federal, state and local government web resources and services.